Home > Weather > Yonkers > Past weeks

Flag for USA Past Weather in Yonkers, New York, USA — Yesterday and Last 2 Weeks

Now
57 °F

Clear.


Feels Like: 57 °F
Forecast: 59 / 87 °F
Wind: No wind

Location: Teterboro Airport

Current Time: May 25, 2016 at 3:18:17 AM

Latest Report: May 25, 2016 at 2:51 AM


Visibility: 10 mi

Pressure: 29.99 "Hg

Humidity: 81%

Dew Point: 51 °F

Location of YonkersLocation

Past Weather in Yonkers — Graph

°F

Yonkers Temperature Yesterday

Maximum temperature yesterday: 74 °F (at 2:51 PM)
Minimum temperature yesterday: 59 °F (at 2:51 AM)
Average temperature yesterday: 66 °F

High & Low Weather Summary for the Past Weeks

 TemperatureHumidityPressure
High78 °F (May 12, 2:51 PM)93% (May 14, 3:51 AM)30.26 "Hg (May 14, 3:51 AM)
Low41 °F (May 16, 3:51 AM)17% (May 12, 5:51 PM)29.57 "Hg (May 14, 5:51 PM)
Average61 °F52%30.00 "Hg
* Reported May 10 1:51 AM — May 25 1:51 AM, Yonkers, Weather by CustomWeather, © 2016

Note: Actual official high and low records may vary slightly from our data, if they occured in-between our weather recording intervals... More about our weather records

Advertising

Yonkers Weather History for the Previous 24 Hours

Scroll right to see more
 ConditionsComfort  
Time TempWeatherWind HumidityBarometerVisibility
1:51 AM
Wed, May 25
60 °FClear.No wind75%29.99 "Hg10 mi
12:51 AM63 °FClear.No wind65%29.98 "Hg10 mi
11:51 PM
Tue, May 24
63 °FClear.No wind65%29.98 "Hg10 mi
10:51 PM65 °FPassing clouds.No wind63%29.97 "Hg10 mi
9:51 PM68 °FPassing clouds.No wind53%29.96 "Hg10 mi
8:51 PM70 °FOvercast.5 mph49%29.95 "Hg10 mi
7:51 PM70 °FScattered clouds.3 mph51%29.93 "Hg10 mi
6:51 PM71 °FOvercast.No wind45%29.91 "Hg10 mi
5:51 PM72 °FOvercast.No wind44%29.90 "Hg10 mi
4:51 PM71 °FOvercast.7 mph45%29.91 "Hg10 mi
3:51 PM74 °FPartly sunny.3 mph41%29.89 "Hg10 mi
2:51 PM74 °FSunny.No wind43%29.88 "Hg10 mi
1:51 PM72 °FMostly cloudy.8 mph55%29.90 "Hg10 mi
12:51 PM69 °FPartly sunny.5 mph63%29.90 "Hg10 mi
11:51 AM67 °FOvercast.5 mph68%29.91 "Hg10 mi
10:51 AM64 °FLight rain. Overcast.3 mph73%29.91 "Hg8 mi
9:51 AM62 °FLight rain. Overcast.7 mph78%29.91 "Hg8 mi
8:51 AM62 °FLight rain. More clouds than sun.5 mph78%29.90 "Hg8 mi
7:51 AM60 °FLight rain. More clouds than sun.No wind83%29.89 "Hg8 mi
6:51 AM59 °FLight rain. Mostly cloudy.3 mph87%29.88 "Hg7 mi
5:51 AM59 °FLight rain. Overcast.No wind87%29.87 "Hg8 mi
4:51 AM59 °FDrizzle. Overcast.No wind84%29.85 "Hg10 mi
3:51 AM59 °FLight rain. Overcast.No wind84%29.86 "Hg10 mi
Weather by CustomWeather, © 2016

See weather overviewHow to use our weather pages